| time (UTC) | temp F | wind direction | speed MPH | gust MPH | rain 1hr in | rain 24hr in | rain mn in | humidity % | barometer mb |
| 20260508100059 | 86 | 0.0 | 0.0 | 0.00 | 0.00 | 0.00 | 62 | 992.9 | |
| 20260508095553 | 86 | 0.0 | 0.0 | 0.00 | 0.00 | 0.00 | 63 | 992.9 | |
| 20260508095046 | 86 | 0.0 | 0.0 | 0.00 | 0.00 | 0.00 | 64 | 993.0 | |
| 20260508094538 | 86 | 0.0 | 0.0 | 0.00 | 0.00 | 0.00 | 65 | 993.0 | |
| 20260508094032 | 86 | 0.0 | 0.0 | 0.00 | 0.00 | 0.00 | 65 | 992.9 | |
| 20260508093525 | 86 | 0.0 | 0.0 | 0.00 | 0.00 | 0.00 | 64 | 992.7 | |
| 20260508093018 | 81 | 0.0 | 0.0 | 0.00 | 0.00 | 0.00 | 44 | 992.7 | |
| 20260508092509 | 76 | 0.0 | 0.0 | 0.00 | 0.00 | 0.00 | 36 | 992.5 | |
| 20260508091959 | 77 | 0.0 | 0.0 | 0.00 | 0.00 | 0.00 | 37 | 992.4 | |
| 20260508090944 | 76 | 0.0 | 0.0 | 0.00 | 0.00 | 0.00 | 37 | 992.5 | |
| 20260508090436 | 76 | 0.0 | 0.0 | 0.00 | 0.00 | 0.00 | 36 | 992.6 | |
| 20260508085928 | 76 | 0.0 | 0.0 | 0.00 | 0.00 | 0.00 | 36 | 992.6 | |
| 20260508085421 | 76 | 0.0 | 0.0 | 0.00 | 0.00 | 0.00 | 36 | 992.6 | |
| 20260508084914 | 76 | 0.0 | 0.0 | 0.00 | 0.00 | 0.00 | 36 | 992.7 | |
| 20260508084407 | 76 | 0.0 | 0.0 | 0.00 | 0.00 | 0.00 | 36 | 992.8 | |
| 20260508083900 | 77 | 0.0 | 0.0 | 0.00 | 0.00 | 0.00 | 36 | 992.9 | |
| 20260508083353 | 77 | 0.0 | 0.0 | 0.00 | 0.00 | 0.00 | 36 | 993.1 | |
| 20260508082845 | 77 | 0.0 | 0.0 | 0.00 | 0.00 | 0.00 | 36 | 993.1 | |
| 20260508082338 | 77 | 0.0 | 0.0 | 0.00 | 0.00 | 0.00 | 36 | 993.2 | |
| 20260508081831 | 77 | 0.0 | 0.0 | 0.00 | 0.00 | 0.00 | 36 | 993.3 | |
| 20260508081321 | 77 | 0.0 | 0.0 | 0.00 | 0.00 | 0.00 | 36 | 993.4 | |
| 20260508080814 | 77 | 0.0 | 0.0 | 0.00 | 0.00 | 0.00 | 36 | 993.4 | |
| 20260508080307 | 77 | 0.0 | 0.0 | 0.00 | 0.00 | 0.00 | 36 | 993.5 | |
| 20260508075759 | 77 | 0.0 | 0.0 | 0.00 | 0.00 | 0.00 | 36 | 993.6 | |
| 20260508074745 | 77 | 0.0 | 0.0 | 0.00 | 0.00 | 0.00 | 37 | 993.7 | |
| 20260508074236 | 77 | 0.0 | 0.0 | 0.00 | 0.00 | 0.00 | 37 | 993.8 | |
| 20260508073726 | 77 | 0.0 | 0.0 | 0.00 | 0.00 | 0.00 | 37 | 993.8 | |
| 20260508073215 | 77 | 0.0 | 0.0 | 0.00 | 0.00 | 0.00 | 38 | 994.0 | |
| 20260508072705 | 78 | 0.0 | 0.0 | 0.00 | 0.00 | 0.00 | 38 | 994.1 | |
| 20260508072159 | 78 | 0.0 | 0.0 | 0.00 | 0.00 | 0.00 | 39 | 994.2 | |
| 20260508071652 | 78 | 0.0 | 0.0 | 0.00 | 0.00 | 0.00 | 38 | 994.2 | |
| 20260508071142 | 78 | 0.0 | 0.0 | 0.00 | 0.00 | 0.00 | 38 | 994.3 | |
| 20260508070634 | 78 | 0.0 | 0.0 | 0.00 | 0.00 | 0.00 | 39 | 994.3 | |
| 20260508070127 | 78 | 0.0 | 0.0 | 0.00 | 0.00 | 0.00 | 38 | 994.3 | |
| 20260508065618 | 78 | 0.0 | 0.0 | 0.00 | 0.00 | 0.00 | 39 | 994.3 | |
| 20260508065111 | 78 | 0.0 | 0.0 | 0.00 | 0.00 | 0.00 | 40 | 994.5 | |
| 20260508064056 | 78 | 0.0 | 0.0 | 0.00 | 0.00 | 0.00 | 40 | 994.6 | |
| 20260508063548 | 78 | 0.0 | 0.0 | 0.00 | 0.00 | 0.00 | 39 | 994.7 | |
| 20260508063041 | 78 | 0.0 | 0.0 | 0.00 | 0.00 | 0.00 | 39 | 994.8 | |
| 20260508062534 | 77 | 0.0 | 0.0 | 0.00 | 0.00 | 0.00 | 39 | 994.9 | |
| 20260508061519 | 76 | 0.0 | 0.0 | 0.00 | 0.00 | 0.00 | 38 | 995.1 | |
| 20260508061012 | 76 | 0.0 | 0.0 | 0.00 | 0.00 | 0.00 | 38 | 995.3 | |
| 20260508060504 | 76 | 0.0 | 0.0 | 0.00 | 0.00 | 0.00 | 39 | 995.4 | |
| 20260508055956 | 76 | 0.0 | 0.0 | 0.00 | 0.00 | 0.00 | 39 | 995.6 | |
| 20260508054943 | 76 | 0.0 | 0.0 | 0.00 | 0.00 | 0.00 | 41 | 995.9 | |
| 20260508053928 | 77 | 0.0 | 0.0 | 0.00 | 0.00 | 0.00 | 43 | 996.1 | |
| 20260508053422 | 77 | 0.0 | 0.0 | 0.00 | 0.00 | 0.00 | 40 | 996.2 | |
| 20260508052911 | 76 | 0.0 | 0.0 | 0.00 | 0.00 | 0.00 | 39 | 996.4 | |
| 20260508052402 | 76 | 0.0 | 0.0 | 0.00 | 0.00 | 0.00 | 39 | 996.4 | |
| 20260508051855 | 75 | 0.0 | 0.0 | 0.00 | 0.00 | 0.00 | 39 | 996.4 | |
| 20260508051349 | 76 | 0.0 | 0.0 | 0.00 | 0.00 | 0.00 | 40 | 996.4 | |
| 20260508050842 | 77 | 0.0 | 0.0 | 0.00 | 0.00 | 0.00 | 40 | 996.4 | |
| 20260508045317 | 76 | 0.0 | 0.0 | 0.00 | 0.00 | 0.00 | 40 | 996.6 | |
| 20260508044811 | 77 | 0.0 | 0.0 | 0.00 | 0.00 | 0.00 | 42 | 996.7 | |
| 20260508044301 | 78 | 0.0 | 0.0 | 0.00 | 0.00 | 0.00 | 43 | 996.9 | |
| 20260508043754 | 77 | 0.0 | 0.0 | 0.00 | 0.00 | 0.00 | 42 | 997.0 | |
| 20260508043246 | 77 | 0.0 | 0.0 | 0.00 | 0.00 | 0.00 | 40 | 997.1 | |
| 20260508042739 | 76 | 0.0 | 0.0 | 0.00 | 0.00 | 0.00 | 41 | 997.2 | |
| 20260508042232 | 77 | 0.0 | 0.0 | 0.00 | 0.00 | 0.00 | 42 | 997.2 | |
| 20260508041722 | 77 | 0.0 | 0.0 | 0.00 | 0.00 | 0.00 | 43 | 997.3 | |
| 20260508041215 | 77 | 0.0 | 0.0 | 0.00 | 0.00 | 0.00 | 42 | 997.3 | |
| 20260508040708 | 77 | 0.0 | 0.0 | 0.00 | 0.00 | 0.00 | 42 | 997.4 | |
| 20260508040200 | 77 | 0.0 | 0.0 | 0.00 | 0.00 | 0.00 | 42 | 997.6 | |
| 20260508035652 | 77 | 0.0 | 0.0 | 0.00 | 0.00 | 0.00 | 40 | 997.6 | |
| 20260508035142 | 77 | 0.0 | 0.0 | 0.00 | 0.00 | 0.00 | 41 | 997.7 | |
| 20260508034635 | 77 | 0.0 | 0.0 | 0.00 | 0.00 | 0.00 | 42 | 997.8 | |
| 20260508034127 | 78 | 0.0 | 0.0 | 0.00 | 0.00 | 0.00 | 43 | 997.9 | |
| 20260508033618 | 77 | 0.0 | 0.0 | 0.00 | 0.00 | 0.00 | 42 | 998.0 | |
| 20260508033111 | 77 | 0.0 | 0.0 | 0.00 | 0.00 | 0.00 | 41 | 998.0 | |
| 20260508032605 | 77 | 0.0 | 0.0 | 0.00 | 0.00 | 0.00 | 42 | 998.1 | |
| 20260508032057 | 77 | 0.0 | 0.0 | 0.00 | 0.00 | 0.00 | 42 | 998.2 | |
| 20260508031551 | 78 | 0.0 | 0.0 | 0.00 | 0.00 | 0.00 | 43 | 998.2 | |
| 20260508031043 | 77 | 0.0 | 0.0 | 0.00 | 0.00 | 0.00 | 42 | 998.2 | |
| 20260508030536 | 77 | 0.0 | 0.0 | 0.00 | 0.00 | 0.00 | 42 | 998.1 | |
| 20260508030029 | 77 | 0.0 | 0.0 | 0.00 | 0.00 | 0.00 | 42 | 998.1 | |
| 20260508025523 | 77 | 0.0 | 0.0 | 0.00 | 0.00 | 0.00 | 43 | 998.0 | |
| 20260508024510 | 79 | 0.0 | 0.0 | 0.00 | 0.00 | 0.00 | 46 | 997.9 | |
| 20260508023453 | 78 | 0.0 | 0.0 | 0.00 | 0.00 | 0.00 | 43 | 997.7 | |
| 20260508022947 | 79 | 0.0 | 0.0 | 0.00 | 0.00 | 0.00 | 44 | 997.7 | |
| 20260508022440 | 79 | 0.0 | 0.0 | 0.00 | 0.00 | 0.00 | 46 | 997.7 | |
| 20260508021932 | 80 | 0.0 | 0.0 | 0.00 | 0.00 | 0.00 | 47 | 997.7 | |
| 20260508021425 | 80 | 0.0 | 0.0 | 0.00 | 0.00 | 0.00 | 49 | 997.9 | |
| 20260508020918 | 81 | 0.0 | 0.0 | 0.00 | 0.00 | 0.00 | 52 | 998.1 | |
| 20260508020411 | 81 | 0.0 | 0.0 | 0.00 | 0.00 | 0.00 | 54 | 998.2 | |
| 20260508015904 | 82 | 0.0 | 0.0 | 0.00 | 0.00 | 0.00 | 56 | 998.1 | |
| 20260508014849 | 83 | 0.0 | 0.0 | 0.00 | 0.00 | 0.00 | 61 | 997.6 | |
| 20260508014342 | 84 | 0.0 | 0.0 | 0.00 | 0.00 | 0.00 | 65 | 997.5 | |
| 20260508013836 | 85 | 0.0 | 0.0 | 0.00 | 0.00 | 0.00 | 67 | 997.3 | |
| 20260508013329 | 85 | 0.0 | 0.0 | 0.00 | 0.00 | 0.00 | 67 | 997.2 | |
| 20260508012822 | 85 | 0.0 | 0.0 | 0.00 | 0.00 | 0.00 | 67 | 997.2 | |
| 20260508012312 | 85 | 0.0 | 0.0 | 0.00 | 0.00 | 0.00 | 68 | 997.3 | |
| 20260508011806 | 85 | 0.0 | 0.0 | 0.00 | 0.00 | 0.00 | 68 | 997.5 | |
| 20260508011259 | 85 | 0.0 | 0.0 | 0.00 | 0.00 | 0.00 | 68 | 997.4 | |
| 20260508010746 | 85 | 0.0 | 0.0 | 0.00 | 0.00 | 0.00 | 68 | 997.3 | |
| 20260508010237 | 85 | 0.0 | 0.0 | 0.00 | 0.00 | 0.00 | 68 | 997.4 | |
| 20260508005730 | 85 | 0.0 | 0.0 | 0.00 | 0.00 | 0.00 | 68 | 997.5 | |
| 20260508005224 | 85 | 0.0 | 0.0 | 0.00 | 0.00 | 0.00 | 68 | 997.5 | |
| 20260508004717 | 85 | 0.0 | 0.0 | 0.00 | 0.00 | 0.00 | 68 | 997.6 | |
| 20260508004210 | 85 | 0.0 | 0.0 | 0.00 | 0.00 | 0.00 | 68 | 997.5 | |
| 20260508003703 | 85 | 0.0 | 0.0 | 0.00 | 0.00 | 0.00 | 68 | 997.5 | |
| 20260508003157 | 85 | 0.0 | 0.0 | 0.00 | 0.00 | 0.00 | 68 | 997.4 | |
| 20260508002651 | 85 | 0.0 | 0.0 | 0.00 | 0.00 | 0.00 | 68 | 997.4 | |
| 20260508002143 | 85 | 0.0 | 0.0 | 0.00 | 0.00 | 0.00 | 68 | 997.3 | |
| 20260508001635 | 85 | 0.0 | 0.0 | 0.00 | 0.00 | 0.00 | 68 | 997.3 | |
| 20260508001127 | 85 | 0.0 | 0.0 | 0.00 | 0.00 | 0.00 | 67 | 997.2 | |
| 20260508000621 | 85 | 0.0 | 0.0 | 0.00 | 0.00 | 0.00 | 67 | 996.7 | |
| 20260508000113 | 85 | 0.0 | 0.0 | 0.00 | 0.00 | 0.00 | 67 | 996.5 | |
| 20260507235605 | 85 | 0.0 | 0.0 | 0.00 | 0.00 | 0.00 | 68 | 996.4 | |
| 20260507234551 | 85 | 0.0 | 0.0 | 0.00 | 0.00 | 0.00 | 67 | 996.0 | |
| 20260507234043 | 85 | 0.0 | 0.0 | 0.00 | 0.00 | 0.00 | 68 | 995.9 | |
| 20260507233533 | 85 | 0.0 | 0.0 | 0.00 | 0.00 | 0.00 | 68 | 995.9 | |
| 20260507233027 | 85 | 0.0 | 0.0 | 0.00 | 0.00 | 0.00 | 68 | 995.8 | |
| 20260507232010 | 85 | 0.0 | 0.0 | 0.00 | 0.00 | 0.00 | 68 | 995.8 | |
| 20260507231503 | 85 | 0.0 | 0.0 | 0.00 | 0.00 | 0.00 | 69 | 995.7 | |
| 20260507230956 | 85 | 0.0 | 0.0 | 0.00 | 0.00 | 0.00 | 68 | 995.6 | |
| 20260507230449 | 85 | 0.0 | 0.0 | 0.00 | 0.00 | 0.00 | 66 | 995.5 | |
| 20260507225943 | 85 | 0.0 | 0.0 | 0.00 | 0.00 | 0.00 | 66 | 995.4 | |
| 20260507225430 | 85 | 0.0 | 0.0 | 0.00 | 0.00 | 0.00 | 66 | 995.2 | |
| 20260507224924 | 85 | 0.0 | 0.0 | 0.00 | 0.00 | 0.00 | 66 | 995.1 | |
| 20260507223907 | 85 | 0.0 | 0.0 | 0.00 | 0.00 | 0.00 | 66 | 994.9 | |
| 20260507223401 | 85 | 0.0 | 0.0 | 0.00 | 0.00 | 0.00 | 66 | 994.9 | |
| 20260507222854 | 85 | 0.0 | 0.0 | 0.00 | 0.00 | 0.00 | 67 | 994.9 | |
| 20260507222348 | 85 | 0.0 | 0.0 | 0.00 | 0.00 | 0.00 | 66 | 994.9 | |
| 20260507221841 | 85 | 0.0 | 0.0 | 0.00 | 0.00 | 0.00 | 66 | 994.9 | |
| 20260507220825 | 85 | 0.0 | 0.0 | 0.00 | 0.00 | 0.00 | 66 | 995.0 | |
| 20260507220318 | 86 | 0.0 | 0.0 | 0.00 | 0.00 | 0.00 | 66 | 994.9 | |
| 20260507215812 | 86 | 0.0 | 0.0 | 0.00 | 0.00 | 0.00 | 66 | 994.8 | |
| 20260507215306 | 86 | 0.0 | 0.0 | 0.00 | 0.00 | 0.00 | 66 | 994.7 | |
| 20260507214756 | 86 | 0.0 | 0.0 | 0.00 | 0.00 | 0.00 | 65 | 994.8 | |
| 20260507214244 | 86 | 0.0 | 0.0 | 0.00 | 0.00 | 0.00 | 65 | 994.7 | |
| 20260507213230 | 86 | 0.0 | 0.0 | 0.00 | 0.00 | 0.00 | 65 | 994.6 | |
| 20260507212723 | 86 | 0.0 | 0.0 | 0.00 | 0.00 | 0.00 | 66 | 994.6 | |
| 20260507212215 | 86 | 0.0 | 0.0 | 0.00 | 0.00 | 0.00 | 66 | 994.5 | |
| 20260507211706 | 86 | 0.0 | 0.0 | 0.00 | 0.00 | 0.00 | 66 | 994.4 | |
| 20260507211200 | 86 | 0.0 | 0.0 | 0.00 | 0.00 | 0.00 | 66 | 994.4 | |
| 20260507210652 | 86 | 0.0 | 0.0 | 0.00 | 0.00 | 0.00 | 66 | 994.3 | |
| 20260507210145 | 86 | 0.0 | 0.0 | 0.00 | 0.00 | 0.00 | 66 | 994.3 | |
| 20260507205130 | 86 | 0.0 | 0.0 | 0.00 | 0.00 | 0.00 | 66 | 994.3 | |
| 20260507204618 | 86 | 0.0 | 0.0 | 0.00 | 0.00 | 0.00 | 66 | 994.4 | |
| 20260507204111 | 86 | 0.0 | 0.0 | 0.00 | 0.00 | 0.00 | 66 | 994.4 | |
| 20260507203605 | 86 | 0.0 | 0.0 | 0.00 | 0.00 | 0.00 | 67 | 994.6 | |
| 20260507203058 | 86 | 0.0 | 0.0 | 0.00 | 0.00 | 0.00 | 66 | 994.7 | |
| 20260507202550 | 86 | 0.0 | 0.0 | 0.00 | 0.00 | 0.00 | 67 | 994.7 | |
| 20260507202044 | 86 | 0.0 | 0.0 | 0.00 | 0.00 | 0.00 | 67 | 994.7 | |
| 20260507201537 | 86 | 0.0 | 0.0 | 0.00 | 0.00 | 0.00 | 67 | 994.6 | |
| 20260507201020 | 86 | 0.0 | 0.0 | 0.00 | 0.00 | 0.00 | 67 | 994.7 | |
| 20260507200511 | 87 | 0.0 | 0.0 | 0.00 | 0.00 | 0.00 | 67 | 994.7 | |
| 20260507200002 | 87 | 0.0 | 0.0 | 0.00 | 0.00 | 0.00 | 67 | 994.8 | |
| 20260507195454 | 87 | 0.0 | 0.0 | 0.00 | 0.00 | 0.00 | 66 | 994.8 | |
| 20260507194947 | 87 | 0.0 | 0.0 | 0.00 | 0.00 | 0.00 | 66 | 994.7 | |
| 20260507194439 | 87 | 0.0 | 0.0 | 0.00 | 0.00 | 0.00 | 66 | 994.6 | |
| 20260507193931 | 87 | 0.0 | 0.0 | 0.00 | 0.00 | 0.00 | 66 | 994.6 | |
| 20260507193425 | 87 | 0.0 | 0.0 | 0.00 | 0.00 | 0.00 | 66 | 994.7 | |
| 20260507192915 | 87 | 0.0 | 0.0 | 0.00 | 0.00 | 0.00 | 66 | 994.7 | |
| 20260507192408 | 87 | 0.0 | 0.0 | 0.00 | 0.00 | 0.00 | 66 | 994.6 | |
| 20260507191859 | 87 | 0.0 | 0.0 | 0.00 | 0.00 | 0.00 | 66 | 994.6 | |
| 20260507191350 | 87 | 0.0 | 0.0 | 0.00 | 0.00 | 0.00 | 66 | 994.5 | |
| 20260507190841 | 87 | 0.0 | 0.0 | 0.00 | 0.00 | 0.00 | 66 | 994.5 | |
| 20260507190334 | 87 | 0.0 | 0.0 | 0.00 | 0.00 | 0.00 | 66 | 994.5 | |
| 20260507185828 | 87 | 0.0 | 0.0 | 0.00 | 0.00 | 0.00 | 66 | 994.5 | |
| 20260507185322 | 87 | 0.0 | 0.0 | 0.00 | 0.00 | 0.00 | 66 | 994.6 | |
| 20260507184810 | 87 | 0.0 | 0.0 | 0.00 | 0.00 | 0.00 | 66 | 994.7 | |
| 20260507184300 | 87 | 0.0 | 0.0 | 0.00 | 0.00 | 0.00 | 67 | 994.6 | |
| 20260507183753 | 87 | 0.0 | 0.0 | 0.00 | 0.00 | 0.00 | 66 | 994.7 | |
| 20260507183239 | 87 | 0.0 | 0.0 | 0.00 | 0.00 | 0.00 | 66 | 994.6 | |
| 20260507182732 | 87 | 0.0 | 0.0 | 0.00 | 0.00 | 0.00 | 66 | 994.6 | |
| 20260507182225 | 87 | 0.0 | 0.0 | 0.00 | 0.00 | 0.00 | 66 | 994.6 | |
| 20260507181717 | 87 | 0.0 | 0.0 | 0.00 | 0.00 | 0.00 | 65 | 994.6 | |
| 20260507181206 | 87 | 0.0 | 0.0 | 0.00 | 0.00 | 0.00 | 65 | 994.6 | |
| 20260507180658 | 87 | 0.0 | 0.0 | 0.00 | 0.00 | 0.00 | 66 | 994.6 | |
| 20260507180145 | 87 | 0.0 | 0.0 | 0.00 | 0.00 | 0.00 | 65 | 994.7 | |
| 20260507175638 | 87 | 0.0 | 0.0 | 0.00 | 0.00 | 0.00 | 65 | 994.7 | |
| 20260507175131 | 87 | 0.0 | 0.0 | 0.00 | 0.00 | 0.00 | 66 | 994.7 | |
| 20260507174624 | 87 | 0.0 | 0.0 | 0.00 | 0.00 | 0.00 | 66 | 994.8 | |
| 20260507174115 | 87 | 0.0 | 0.0 | 0.00 | 0.00 | 0.00 | 66 | 994.8 | |
| 20260507173606 | 87 | 0.0 | 0.0 | 0.00 | 0.00 | 0.00 | 66 | 994.7 | |
| 20260507173100 | 87 | 0.0 | 0.0 | 0.00 | 0.00 | 0.00 | 66 | 994.8 | |
| 20260507172553 | 87 | 0.0 | 0.0 | 0.00 | 0.00 | 0.00 | 65 | 994.8 | |
| 20260507172047 | 87 | 0.0 | 0.0 | 0.00 | 0.00 | 0.00 | 65 | 994.7 | |
| 20260507171540 | 87 | 0.0 | 0.0 | 0.00 | 0.00 | 0.00 | 65 | 994.5 | |
| 20260507170519 | 87 | 0.0 | 0.0 | 0.00 | 0.00 | 0.00 | 65 | 994.2 | |
| 20260507170009 | 87 | 0.0 | 0.0 | 0.00 | 0.00 | 0.00 | 66 | 994.2 | |
| 20260507165501 | 87 | 0.0 | 0.0 | 0.00 | 0.00 | 0.00 | 65 | 994.2 | |
| 20260507164952 | 87 | 0.0 | 0.0 | 0.00 | 0.00 | 0.00 | 65 | 994.2 | |
| 20260507163939 | 87 | 0.0 | 0.0 | 0.00 | 0.00 | 0.00 | 65 | 994.3 | |
| 20260507163432 | 88 | 0.0 | 0.0 | 0.00 | 0.00 | 0.00 | 65 | 994.3 | |
| 20260507162925 | 88 | 0.0 | 0.0 | 0.00 | 0.00 | 0.00 | 64 | 994.5 | |
| 20260507162416 | 88 | 0.0 | 0.0 | 0.00 | 0.00 | 0.00 | 64 | 994.4 | |
| 20260507161401 | 88 | 0.0 | 0.0 | 0.00 | 0.00 | 0.00 | 65 | 994.4 | |
| 20260507160854 | 88 | 0.0 | 0.0 | 0.00 | 0.00 | 0.00 | 64 | 994.5 | |
| 20260507160342 | 88 | 0.0 | 0.0 | 0.00 | 0.00 | 0.00 | 64 | 994.5 | |
| 20260507155835 | 88 | 0.0 | 0.0 | 0.00 | 0.00 | 0.00 | 65 | 994.5 | |
| 20260507154819 | 88 | 0.0 | 0.0 | 0.00 | 0.00 | 0.00 | 64 | 994.6 | |
| 20260507153759 | 88 | 0.0 | 0.0 | 0.00 | 0.00 | 0.00 | 64 | 994.7 | |
| 20260507153249 | 88 | 0.0 | 0.0 | 0.00 | 0.00 | 0.00 | 63 | 994.7 | |
| 20260507152738 | 88 | 0.0 | 0.0 | 0.00 | 0.00 | 0.00 | 63 | 994.7 | |
| 20260507152230 | 88 | 0.0 | 0.0 | 0.00 | 0.00 | 0.00 | 64 | 994.8 | |
| 20260507151719 | 88 | 0.0 | 0.0 | 0.00 | 0.00 | 0.00 | 63 | 994.8 | |
| 20260507151211 | 88 | 0.0 | 0.0 | 0.00 | 0.00 | 0.00 | 63 | 994.9 | |
| 20260507145649 | 88 | 0.0 | 0.0 | 0.00 | 0.00 | 0.00 | 63 | 994.9 | |
| 20260507145142 | 88 | 0.0 | 0.0 | 0.00 | 0.00 | 0.00 | 62 | 994.8 | |
| 20260507144629 | 88 | 0.0 | 0.0 | 0.00 | 0.00 | 0.00 | 62 | 994.8 | |
| 20260507144123 | 88 | 0.0 | 0.0 | 0.00 | 0.00 | 0.00 | 62 | 994.7 | |
| 20260507143613 | 88 | 0.0 | 0.0 | 0.00 | 0.00 | 0.00 | 63 | 994.7 | |
| 20260507143104 | 88 | 0.0 | 0.0 | 0.00 | 0.00 | 0.00 | 62 | 994.7 | |
| 20260507142046 | 88 | 0.0 | 0.0 | 0.00 | 0.00 | 0.00 | 61 | 994.5 | |
| 20260507141030 | 88 | 0.0 | 0.0 | 0.00 | 0.00 | 0.00 | 61 | 994.5 | |
| 20260507140524 | 88 | 0.0 | 0.0 | 0.00 | 0.00 | 0.00 | 61 | 994.4 | |
| 20260507140016 | 88 | 0.0 | 0.0 | 0.00 | 0.00 | 0.00 | 61 | 994.2 | |
| 20260507135504 | 88 | 0.0 | 0.0 | 0.00 | 0.00 | 0.00 | 60 | 994.0 | |
| 20260507134955 | 88 | 0.0 | 0.0 | 0.00 | 0.00 | 0.00 | 59 | 994.0 | |
| 20260507134448 | 88 | 0.0 | 0.0 | 0.00 | 0.00 | 0.00 | 60 | 993.9 | |
| 20260507133430 | 88 | 0.0 | 0.0 | 0.00 | 0.00 | 0.00 | 59 | 993.8 | |
| 20260507132923 | 88 | 0.0 | 0.0 | 0.00 | 0.00 | 0.00 | 59 | 993.8 | |
| 20260507132414 | 88 | 0.0 | 0.0 | 0.00 | 0.00 | 0.00 | 58 | 993.7 | |
| 20260507131906 | 88 | 0.0 | 0.0 | 0.00 | 0.00 | 0.00 | 58 | 993.7 | |
| 20260507131357 | 88 | 0.0 | 0.0 | 0.00 | 0.00 | 0.00 | 59 | 993.6 | |
| 20260507130846 | 88 | 0.0 | 0.0 | 0.00 | 0.00 | 0.00 | 61 | 993.6 | |
| 20260507125830 | 88 | 0.0 | 0.0 | 0.00 | 0.00 | 0.00 | 58 | 993.6 | |
| 20260507125323 | 88 | 0.0 | 0.0 | 0.00 | 0.00 | 0.00 | 58 | 993.6 | |
| 20260507124815 | 88 | 0.0 | 0.0 | 0.00 | 0.00 | 0.00 | 58 | 993.5 | |
| 20260507124308 | 88 | 0.0 | 0.0 | 0.00 | 0.00 | 0.00 | 57 | 993.5 | |
| 20260507123800 | 88 | 0.0 | 0.0 | 0.00 | 0.00 | 0.00 | 59 | 993.4 | |
| 20260507123250 | 88 | 0.0 | 0.0 | 0.00 | 0.00 | 0.00 | 59 | 993.4 | |
| 20260507122744 | 88 | 0.0 | 0.0 | 0.00 | 0.00 | 0.00 | 58 | 993.3 | |
| 20260507121729 | 89 | 0.0 | 0.0 | 0.00 | 0.00 | 0.00 | 58 | 993.1 | |
| 20260507120712 | 89 | 0.0 | 0.0 | 0.00 | 0.00 | 0.00 | 59 | 992.8 | |
| 20260507120206 | 89 | 0.0 | 0.0 | 0.00 | 0.00 | 0.00 | 58 | 992.5 | |
| 20260507115656 | 89 | 0.0 | 0.0 | 0.00 | 0.00 | 0.00 | 60 | 992.3 | |
| 20260507115150 | 89 | 0.0 | 0.0 | 0.00 | 0.00 | 0.00 | 60 | 992.3 | |
| 20260507114643 | 89 | 0.0 | 0.0 | 0.00 | 0.00 | 0.00 | 60 | 992.3 | |
| 20260507114137 | 89 | 0.0 | 0.0 | 0.00 | 0.00 | 0.00 | 59 | 992.3 | |
| 20260507113630 | 89 | 0.0 | 0.0 | 0.00 | 0.00 | 0.00 | 60 | 992.4 | |
| 20260507112615 | 89 | 0.0 | 0.0 | 0.00 | 0.00 | 0.00 | 60 | 992.1 | |
| 20260507112106 | 89 | 0.0 | 0.0 | 0.00 | 0.00 | 0.00 | 60 | 992.1 | |
| 20260507111559 | 89 | 0.0 | 0.0 | 0.00 | 0.00 | 0.00 | 61 | 992.0 | |
| 20260507111049 | 89 | 0.0 | 0.0 | 0.00 | 0.00 | 0.00 | 61 | 991.7 | |
| 20260507110541 | 88 | 0.0 | 0.0 | 0.00 | 0.00 | 0.00 | 61 | 991.7 | |
| 20260507105525 | 88 | 0.0 | 0.0 | 0.00 | 0.00 | 0.00 | 62 | 991.7 | |
| 20260507105014 | 88 | 0.0 | 0.0 | 0.00 | 0.00 | 0.00 | 62 | 991.6 | |
| 20260507104504 | 88 | 0.0 | 0.0 | 0.00 | 0.00 | 0.00 | 62 | 991.6 | |
| 20260507103957 | 88 | 0.0 | 0.0 | 0.00 | 0.00 | 0.00 | 62 | 991.6 | |
| 20260507103450 | 88 | 0.0 | 0.0 | 0.00 | 0.00 | 0.00 | 62 | 991.6 | |
| 20260507102942 | 88 | 0.0 | 0.0 | 0.00 | 0.00 | 0.00 | 62 | 991.6 | |
| 20260507102434 | 88 | 0.0 | 0.0 | 0.00 | 0.00 | 0.00 | 62 | 991.7 | |
| 20260507101926 | 88 | 0.0 | 0.0 | 0.00 | 0.00 | 0.00 | 62 | 991.6 | |
| 20260507101416 | 89 | 0.0 | 0.0 | 0.00 | 0.00 | 0.00 | 63 | 991.5 | |
| 20260507100909 | 88 | 0.0 | 0.0 | 0.00 | 0.00 | 0.00 | 64 | 991.5 | |
| 20260507100402 | 86 | 0.0 | 0.0 | 0.00 | 0.00 | 0.00 | 58 | 991.5 |